Date String (YYYY-MM-DD hh:mm:ss) UTC,Instrument flags,absolute air pressure of the measurement (hPa),sample flow rate (lpm),inlet stack bypass flow (lpm),air temperature of the measurement (°C),ambient temperature measured by the external sensor (°C),aerosol sample conditioner tube jacket temperature (°C),OPC LED temperature (°C),internal box temperature (°C),relative humidity of the measurement (%),span deviation,mass concentration of particles derived from Lorenz-Mie calculation of OPC scattering (μg/m³),mass concentration of particles derived from Lorenz-Mie calculation of OPC scattering (μg/m³),mass concentration of particles derived from Lorenz-Mie calculation of OPC scattering (μg/m³)
DateTimeUTC,F1_M11,P_M11,Q1_M11,Q2_M11,T1_M11,T2_M11,T3_M11,T4_M11,T5_M11,U1_M11,ZSPAN_M11,X0_M11,X2_M11,X1_M11
2024-05-24 11:00:00,SystemResetWarning,0825.6,5.01,000.00,026.0,025.2,000.0,034.3,027.8,009.9,0000.0,0007.88,0001.40,0000.64
2024-05-24 11:01:00,SystemResetWarning,0825.5,4.99,000.00,026.0,025.2,000.0,034.3,027.8,009.9,0000.0,0009.46,0001.43,0000.64
2024-05-24 11:02:00,SystemResetWarning,0825.5,5.00,000.00,026.0,025.2,000.0,034.3,027.7,009.8,0000.0,0010.50,0001.48,0000.62
2024-05-24 11:03:00,SystemResetWarning,0825.4,5.00,000.00,026.0,025.2,000.0,034.3,027.7,009.8,0000.0,0010.55,0001.51,0000.62
2024-05-24 11:04:00,SystemResetWarning,0825.4,5.01,000.00,026.0,025.2,000.0,034.3,027.8,009.8,0000.0,0010.88,0001.50,0000.61
2024-05-24 11:05:00,SystemResetWarning,0825.4,5.00,000.00,026.0,025.2,000.0,034.3,027.8,009.8,0000.0,0010.78,0001.50,0000.61
2024-05-24 11:06:00,SystemResetWarning,0825.4,5.00,000.00,026.0,025.2,000.0,034.3,027.8,009.8,0000.0,0012.14,0001.56,0000.60
2024-05-24 11:07:00,SystemResetWarning,0825.4,5.00,000.00,025.9,025.1,000.0,034.3,027.7,009.8,0000.0,0012.35,0001.57,0000.59
2024-05-24 11:08:00,SystemResetWarning,0825.4,5.00,000.00,025.9,025.1,000.0,034.3,027.7,009.8,0000.0,0012.49,0001.58,0000.59
2024-05-24 11:09:00,SystemResetWarning,0825.4,4.99,000.00,025.9,025.1,000.0,034.3,027.7,009.8,0000.0,0012.74,0001.63,0000.60
2024-05-24 11:10:00,SystemResetWarning,0825.4,5.00,000.00,025.9,025.1,000.0,034.3,027.7,009.8,0000.0,0012.88,0001.65,0000.60
2024-05-24 11:11:00,SystemResetWarning,0825.5,5.00,000.00,025.9,025.1,000.0,034.3,027.7,009.9,0000.0,0013.06,0001.75,0000.60
2024-05-24 11:12:00,SystemResetWarning,0825.5,5.00,000.00,025.9,025.1,000.0,034.3,027.7,009.9,0000.0,0011.99,0001.74,0000.60
2024-05-24 11:13:00,SystemResetWarning,0825.5,5.01,000.00,025.9,025.1,000.0,034.3,027.7,009.9,0000.0,0011.68,0001.74,0000.60
2024-05-24 11:14:00,SystemResetWarning,0825.5,5.01,000.00,025.9,025.1,000.0,034.3,027.7,009.8,0000.0,0010.76,0001.73,0000.61
2024-05-24 11:15:00,SystemResetWarning,0825.5,5.00,000.00,025.9,025.1,000.0,034.3,027.7,009.9,0000.0,0010.59,0001.82,0000.61
2024-05-24 11:16:00,SystemResetWarning,0825.5,4.99,000.00,025.9,025.1,000.0,034.3,027.7,009.9,0000.0,0011.34,0001.84,0000.61
2024-05-24 11:17:00,SystemResetWarning,0825.6,4.99,000.00,025.9,025.1,000.0,034.3,027.7,009.9,0000.0,0010.47,0001.76,0000.61
2024-05-24 11:18:00,SystemResetWarning,0825.6,4.99,000.00,025.9,025.1,000.0,034.2,027.7,009.9,0000.0,0009.64,0001.69,0000.61
2024-05-24 11:19:00,SystemResetWarning,0825.6,5.00,000.00,025.9,025.1,000.0,034.2,027.7,009.9,0000.0,0009.78,0001.69,0000.61
2024-05-24 11:20:00,SystemResetWarning,0825.6,5.01,000.00,025.9,025.1,000.0,034.2,027.6,009.9,0000.0,0009.83,0001.66,0000.61
2024-05-24 11:21:00,SystemResetWarning,0825.6,5.01,000.00,025.9,025.1,000.0,034.2,027.6,009.9,0000.0,0010.08,0001.63,0000.61
2024-05-24 11:22:00,SystemResetWarning,0825.6,4.99,000.00,025.9,025.1,000.0,034.2,027.6,009.9,0000.0,0010.83,0001.58,0000.60
2024-05-24 11:23:00,SystemResetWarning,0825.6,5.00,000.00,025.9,025.0,000.0,034.2,027.6,009.9,0000.0,0010.87,0001.59,0000.61
2024-05-24 11:24:00,SystemResetWarning,0825.6,4.99,000.00,025.8,025.0,000.0,034.2,027.6,009.9,0000.0,0010.03,0001.57,0000.61
2024-05-24 11:25:00,SystemResetWarning,0825.6,5.00,000.00,025.8,025.0,000.0,034.2,027.6,009.9,0000.0,0009.53,0001.51,0000.61
2024-05-24 11:26:00,SystemResetWarning,0825.6,4.99,000.00,025.8,025.1,000.0,034.2,027.6,009.9,0000.0,0009.47,0001.44,0000.60
2024-05-24 11:27:00,SystemResetWarning,0825.6,5.01,000.00,025.8,025.1,000.0,034.2,027.6,009.8,0000.0,0009.26,0001.37,0000.60
2024-05-24 11:28:00,SystemResetWarning,0825.6,5.01,000.00,025.8,025.0,000.0,034.2,027.6,009.8,0000.0,0009.18,0001.40,0000.60
2024-05-24 11:29:00,SystemResetWarning,0825.6,5.00,000.00,025.8,025.1,000.0,034.2,027.6,009.9,0000.0,0010.01,0001.46,0000.60
2024-05-24 11:30:00,SystemResetWarning,0825.6,4.99,000.00,025.8,025.1,000.0,034.2,027.6,009.9,0000.0,0009.53,0001.46,0000.60
2024-05-24 11:31:00,SystemResetWarning,0825.6,4.99,000.00,025.8,025.1,000.0,034.2,027.6,009.9,0000.0,0009.04,0001.52,0000.60
2024-05-24 11:32:00,SystemResetWarning,0825.6,5.01,000.00,025.8,025.0,000.0,034.2,027.6,009.9,0000.0,0009.11,0001.55,0000.60
2024-05-24 11:33:00,SystemResetWarning,0825.7,5.01,000.00,025.8,025.0,000.0,034.2,027.6,010.0,0000.0,0008.89,0001.58,0000.60
2024-05-24 11:34:00,SystemResetWarning,0825.7,4.99,000.00,025.8,025.0,000.0,034.2,027.6,010.0,0000.0,0008.71,0001.55,0000.59
2024-05-24 11:35:00,SystemResetWarning,0825.7,4.99,000.00,025.8,025.0,000.0,034.2,027.6,010.0,0000.0,0009.22,0001.51,0000.58
2024-05-24 11:36:00,SystemResetWarning,0825.7,5.01,000.00,025.8,025.0,000.0,034.2,027.6,010.0,0000.0,0009.88,0001.56,0000.58
2024-05-24 11:37:00,SystemResetWarning,0825.7,5.01,000.00,025.8,025.0,000.0,034.2,027.6,010.0,0000.0,0010.99,0001.61,0000.58
2024-05-24 11:38:00,SystemResetWarning,0825.7,4.99,000.00,025.8,025.0,000.0,034.2,027.5,010.0,0000.0,0010.96,0001.61,0000.58
2024-05-24 11:39:00,SystemResetWarning,0825.6,5.00,000.00,025.8,025.0,000.0,034.1,027.6,010.0,0000.0,0011.26,0001.58,0000.58
2024-05-24 11:40:00,SystemResetWarning,0825.6,4.99,000.00,025.8,025.0,000.0,034.1,027.6,010.0,0000.0,0012.11,0001.53,0000.59
2024-05-24 11:41:00,SystemResetWarning,0825.7,5.00,000.00,025.8,025.0,000.0,034.1,027.6,010.0,0000.0,0012.72,0001.50,0000.59
2024-05-24 11:42:00,SystemResetWarning,0825.7,4.99,000.00,025.8,025.0,000.0,034.1,027.6,010.0,0000.0,0013.16,0001.50,0000.59
2024-05-24 11:43:00,SystemResetWarning,0825.7,5.00,000.00,025.8,025.0,000.0,034.1,027.5,010.0,0000.0,0012.78,0001.49,0000.59
2024-05-24 11:44:00,SystemResetWarning,0825.7,5.00,000.00,025.8,025.0,000.0,034.1,027.5,010.0,0000.0,0011.99,0001.45,0000.61
2024-05-24 11:45:00,SystemResetWarning,0825.7,4.99,000.00,025.7,024.9,000.0,034.1,027.5,010.1,0000.0,0011.87,0001.50,0000.62
2024-05-24 11:46:00,SystemResetWarning,0825.6,5.00,000.00,025.7,024.9,000.0,034.1,027.5,010.0,0000.0,0011.32,0001.55,0000.64
2024-05-24 11:47:00,SystemResetWarning,0825.6,5.01,000.00,025.7,024.9,000.0,034.1,027.5,010.0,0000.0,0010.84,0001.62,0000.65
2024-05-24 11:48:00,SystemResetWarning,0825.6,5.01,000.00,025.7,024.9,000.0,034.1,027.5,010.1,0000.0,0009.95,0001.67,0000.66
2024-05-24 11:49:00,SystemResetWarning,0825.7,5.00,000.00,025.7,024.9,000.0,034.1,027.5,010.1,0000.0,0009.21,0001.66,0000.66
2024-05-24 11:50:00,SystemResetWarning,0825.7,5.00,000.00,025.7,024.9,000.0,034.1,027.5,010.1,0000.0,0008.72,0001.70,0000.66
2024-05-24 11:51:00,SystemResetWarning,0825.7,5.00,000.00,025.7,024.9,000.0,034.1,027.5,010.1,0000.0,0007.40,0001.75,0000.66
2024-05-24 11:52:00,SystemResetWarning,0825.7,4.99,000.00,025.7,024.9,000.0,034.1,027.5,010.2,0000.0,0006.12,0001.75,0000.65
2024-05-24 11:53:00,SystemResetWarning,0825.7,5.00,000.00,025.7,024.9,000.0,034.1,027.5,010.2,0000.0,0006.58,0001.75,0000.65
2024-05-24 11:54:00,SystemResetWarning,0825.7,5.00,000.00,025.7,024.9,000.0,034.1,027.4,010.2,0000.0,0006.90,0001.77,0000.65
2024-05-24 11:55:00,SystemResetWarning,0825.7,5.00,000.00,025.7,024.8,000.0,034.1,027.4,010.2,0000.0,0006.93,0001.75,0000.64
2024-05-24 11:56:00,SystemResetWarning,0825.7,5.00,000.00,025.7,024.8,000.0,034.1,027.4,010.2,0000.0,0008.02,0001.73,0000.64
2024-05-24 11:57:00,SystemResetWarning,0825.6,5.01,000.00,025.6,024.8,000.0,034.1,027.4,010.2,0000.0,0008.04,0001.66,0000.64
2024-05-24 11:58:00,SystemResetWarning,0825.7,5.00,000.00,025.6,024.8,000.0,034.1,027.4,010.2,0000.0,0007.98,0001.60,0000.64
2024-05-24 11:59:00,SystemResetWarning,0825.7,5.00,000.00,025.6,024.7,000.0,034.1,027.4,010.3,0000.0,0008.34,0001.52,0000.62
